owner,sensor,date,latitude,longitude,vertical_datum,wind_speed,wind_to_direction,wind_speed_of_gust,qcFlag 
LOOP,urn:ioos:station:wmo:lopl1:1,2013-08-01T00:16:00Z,28.8850,-90.0250,10.0,2.7,279.0,4.0,'11111222,11111222,11111222' 
LOOP,urn:ioos:station:wmo:lopl1:1,2013-08-01T00:31:00Z,28.8850,-90.0250,10.0,2.1,-9999.0,3.3,'11111222,99999999,11111222' 
LOOP,urn:ioos:station:wmo:lopl1:1,2013-08-01T00:46:00Z,28.8850,-90.0250,10.0,1.5,261.0,3.3,'11111222,11111222,11111222' 
LOOP,urn:ioos:station:wmo:lopl1:1,2013-08-01T01:01:00Z,28.8850,-90.0250,10.0,2.4,-9999.0,3.6,'11111222,99999999,11111222' 
LOOP,urn:ioos:station:wmo:lopl1:1,2013-08-01T01:16:00Z,28.8850,-90.0250,10.0,2.2,-9999.0,3.6,'11111222,99999999,11111222' 
LOOP,urn:ioos:station:wmo:lopl1:1,2013-08-01T01:31:00Z,28.8850,-90.0250,10.0,2.8,-9999.0,4.0,'11111222,99999999,11111222' 
LOOP,urn:ioos:station:wmo:lopl1:1,2013-08-01T01:46:00Z,28.8850,-90.0250,10.0,2.1,-9999.0,3.8,'11111222,99999999,11111222' 
LOOP,urn:ioos:station:wmo:lopl1:1,2013-08-01T02:01:00Z,28.8850,-90.0250,10.0,3.2,-9999.0,4.3,'11111222,99999999,11111222' 
LOOP,urn:ioos:station:wmo:lopl1:1,2013-08-01T02:16:00Z,28.8850,-90.0250,10.0,3.7,-9999.0,4.5,'11111222,99999999,11111222' 
LOOP,urn:ioos:station:wmo:lopl1:1,2013-08-01T02:31:00Z,28.8850,-90.0250,10.0,3.3,-9999.0,4.3,'11111222,99999999,11111222' 
LOOP,urn:ioos:station:wmo:lopl1:1,2013-08-01T02:46:00Z,28.8850,-90.0250,10.0,3.6,-9999.0,4.6,'11111222,99999999,11111222' 
LOOP,urn:ioos:station:wmo:lopl1:1,2013-08-01T03:01:00Z,28.8850,-90.0250,10.0,2.9,-9999.0,4.1,'11111222,99999999,11111222' 
LOOP,urn:ioos:station:wmo:lopl1:1,2013-08-01T03:16:00Z,28.8850,-90.0250,10.0,2.8,-9999.0,3.8,'11111222,99999999,11111222' 
LOOP,urn:ioos:station:wmo:lopl1:1,2013-08-01T03:31:00Z,28.8850,-90.0250,10.0,3.1,-9999.0,4.2,'11111222,99999999,11111222' 
LOOP,urn:ioos:station:wmo:lopl1:1,2013-08-01T03:46:00Z,28.8850,-90.0250,10.0,3.1,-9999.0,4.3,'11111222,99999999,11111222' 
LOOP,urn:ioos:station:wmo:lopl1:1,2013-08-01T04:01:00Z,28.8850,-90.0250,10.0,3.0,-9999.0,4.4,'11111222,99999999,11111222' 
LOOP,urn:ioos:station:wmo:lopl1:1,2013-08-01T04:16:00Z,28.8850,-90.0250,10.0,3.7,-9999.0,4.7,'11111222,99999999,11111222' 
LOOP,urn:ioos:station:wmo:lopl1:1,2013-08-01T04:31:00Z,28.8850,-90.0250,10.0,3.5,-9999.0,4.2,'11111222,99999999,11111222' 
LOOP,urn:ioos:station:wmo:lopl1:1,2013-08-01T04:46:00Z,28.8850,-90.0250,10.0,3.8,-9999.0,4.5,'11111222,99999999,11111222' 
LOOP,urn:ioos:station:wmo:lopl1:1,2013-08-01T05:01:00Z,28.8850,-90.0250,10.0,4.3,-9999.0,5.0,'11111222,99999999,11111222' 
LOOP,urn:ioos:station:wmo:lopl1:1,2013-08-01T05:16:00Z,28.8850,-90.0250,10.0,3.5,-9999.0,4.0,'11111222,99999999,11111222' 
LOOP,urn:ioos:station:wmo:lopl1:1,2013-08-01T05:31:00Z,28.8850,-90.0250,10.0,2.6,-9999.0,3.4,'11111222,99999999,11111222' 
LOOP,urn:ioos:station:wmo:lopl1:1,2013-08-01T05:46:00Z,28.8850,-90.0250,10.0,3.1,-9999.0,3.9,'11111222,99999999,11111222' 
LOOP,urn:ioos:station:wmo:lopl1:1,2013-08-01T06:01:00Z,28.8850,-90.0250,10.0,2.6,-9999.0,4.2,'11111222,99999999,11111222' 
LOOP,urn:ioos:station:wmo:lopl1:1,2013-08-01T06:16:00Z,28.8850,-90.0250,10.0,2.6,-9999.0,4.2,'11111222,99999999,11111222' 
LOOP,urn:ioos:station:wmo:lopl1:1,2013-08-01T06:31:00Z,28.8850,-90.0250,10.0,3.7,-9999.0,5.1,'11111222,99999999,11111222' 
LOOP,urn:ioos:station:wmo:lopl1:1,2013-08-01T06:46:00Z,28.8850,-90.0250,10.0,3.4,-9999.0,4.5,'11111222,99999999,11111222' 
LOOP,urn:ioos:station:wmo:lopl1:1,2013-08-01T07:01:00Z,28.8850,-90.0250,10.0,3.2,-9999.0,3.9,'11111222,99999999,11111222' 
LOOP,urn:ioos:station:wmo:lopl1:1,2013-08-01T07:16:00Z,28.8850,-90.0250,10.0,3.9,-9999.0,5.2,'11111222,99999999,11111222' 
LOOP,urn:ioos:station:wmo:lopl1:1,2013-08-01T07:31:00Z,28.8850,-90.0250,10.0,4.5,-9999.0,5.6,'11111222,99999999,11111222' 
LOOP,urn:ioos:station:wmo:lopl1:1,2013-08-01T07:46:00Z,28.8850,-90.0250,10.0,2.7,-9999.0,5.1,'11111222,99999999,11111222' 
LOOP,urn:ioos:station:wmo:lopl1:1,2013-08-01T08:01:00Z,28.8850,-90.0250,10.0,2.8,-9999.0,5.0,'11111222,99999999,11111222' 
LOOP,urn:ioos:station:wmo:lopl1:1,2013-08-01T08:16:00Z,28.8850,-90.0250,10.0,2.9,263.0,5.7,'11111222,11111222,11111222' 
LOOP,urn:ioos:station:wmo:lopl1:1,2013-08-01T08:31:00Z,28.8850,-90.0250,10.0,4.0,262.0,5.9,'11111222,11111222,11111222' 
LOOP,urn:ioos:station:wmo:lopl1:1,2013-08-01T08:46:00Z,28.8850,-90.0250,10.0,2.4,265.0,4.1,'11111222,11111222,11111222' 
LOOP,urn:ioos:station:wmo:lopl1:1,2013-08-01T09:01:00Z,28.8850,-90.0250,10.0,2.4,263.0,4.2,'11111222,11111222,11111222' 
LOOP,urn:ioos:station:wmo:lopl1:1,2013-08-01T09:16:00Z,28.8850,-90.0250,10.0,3.8,-9999.0,6.3,'11111222,99999999,11111222' 
LOOP,urn:ioos:station:wmo:lopl1:1,2013-08-01T09:31:00Z,28.8850,-90.0250,10.0,3.0,276.0,4.9,'11111222,11111222,11111222' 
LOOP,urn:ioos:station:wmo:lopl1:1,2013-08-01T09:46:00Z,28.8850,-90.0250,10.0,2.9,274.0,4.5,'11111222,11111222,11111222' 
LOOP,urn:ioos:station:wmo:lopl1:1,2013-08-01T10:06:00Z,28.8850,-90.0250,10.0,3.7,286.0,5.1,'11111222,11111222,11111222' 
LOOP,urn:ioos:station:wmo:lopl1:1,2013-08-01T10:21:00Z,28.8850,-90.0250,10.0,3.5,280.0,5.1,'11111222,11111222,11111222' 
LOOP,urn:ioos:station:wmo:lopl1:1,2013-08-01T10:36:00Z,28.8850,-90.0250,10.0,4.1,288.0,5.2,'11111222,11111222,11111222' 
LOOP,urn:ioos:station:wmo:lopl1:1,2013-08-01T10:51:00Z,28.8850,-90.0250,10.0,3.7,285.0,5.6,'11111222,11111222,11111222' 
LOOP,urn:ioos:station:wmo:lopl1:1,2013-08-01T11:06:00Z,28.8850,-90.0250,10.0,4.5,288.0,5.8,'11111222,11111222,11111222' 
LOOP,urn:ioos:station:wmo:lopl1:1,2013-08-01T11:21:00Z,28.8850,-90.0250,10.0,3.9,286.0,5.6,'11111222,11111222,11111222' 
LOOP,urn:ioos:station:wmo:lopl1:1,2013-08-01T11:36:00Z,28.8850,-90.0250,10.0,4.2,281.0,5.4,'11111222,11111222,11111222' 
LOOP,urn:ioos:station:wmo:lopl1:1,2013-08-01T11:51:00Z,28.8850,-90.0250,10.0,3.7,308.0,5.7,'11111222,11111222,11111222' 
LOOP,urn:ioos:station:wmo:lopl1:1,2013-08-01T12:06:00Z,28.8850,-90.0250,10.0,3.5,295.0,5.7,'11111222,11111222,11111222' 
LOOP,urn:ioos:station:wmo:lopl1:1,2013-08-01T12:21:00Z,28.8850,-90.0250,10.0,3.5,311.0,4.8,'11111222,11111222,11111222' 
LOOP,urn:ioos:station:wmo:lopl1:1,2013-08-01T12:36:00Z,28.8850,-90.0250,10.0,3.5,287.0,5.0,'11111222,11111222,11111222' 
LOOP,urn:ioos:station:wmo:lopl1:1,2013-08-01T12:51:00Z,28.8850,-90.0250,10.0,4.2,292.0,5.3,'11111222,11111222,11111222' 
LOOP,urn:ioos:station:wmo:lopl1:1,2013-08-01T13:06:00Z,28.8850,-90.0250,10.0,3.8,297.0,5.5,'11111222,11111222,11111222' 
LOOP,urn:ioos:station:wmo:lopl1:1,2013-08-01T13:21:00Z,28.8850,-90.0250,10.0,3.6,317.0,6.0,'11111222,11111222,11111222' 
LOOP,urn:ioos:station:wmo:lopl1:1,2013-08-01T13:36:00Z,28.8850,-90.0250,10.0,4.2,295.0,6.1,'11111222,11111222,11111222' 
LOOP,urn:ioos:station:wmo:lopl1:1,2013-08-01T13:51:00Z,28.8850,-90.0250,10.0,3.2,312.0,4.6,'11111222,11111222,11111222' 
LOOP,urn:ioos:station:wmo:lopl1:1,2013-08-01T14:06:00Z,28.8850,-90.0250,10.0,3.4,307.0,5.4,'11111222,11111222,11111222' 
LOOP,urn:ioos:station:wmo:lopl1:1,2013-08-01T14:21:00Z,28.8850,-90.0250,10.0,3.4,315.0,5.1,'11111222,11111222,11111222' 
LOOP,urn:ioos:station:wmo:lopl1:1,2013-08-01T14:36:00Z,28.8850,-90.0250,10.0,3.8,316.0,5.2,'11111222,11111222,11111222' 
LOOP,urn:ioos:station:wmo:lopl1:1,2013-08-01T14:51:00Z,28.8850,-90.0250,10.0,4.3,308.0,6.2,'11111222,11111222,11111222' 
LOOP,urn:ioos:station:wmo:lopl1:1,2013-08-01T15:06:00Z,28.8850,-90.0250,10.0,4.7,318.0,6.3,'11111222,11111222,11111222' 
LOOP,urn:ioos:station:wmo:lopl1:1,2013-08-01T15:21:00Z,28.8850,-90.0250,10.0,3.9,320.0,6.0,'11111222,11111222,11111222' 
LOOP,urn:ioos:station:wmo:lopl1:1,2013-08-01T15:36:00Z,28.8850,-90.0250,10.0,4.3,316.0,6.0,'11111222,11111222,11111222' 
LOOP,urn:ioos:station:wmo:lopl1:1,2013-08-01T15:51:00Z,28.8850,-90.0250,10.0,3.9,313.0,5.4,'11111222,11111222,11111222' 
LOOP,urn:ioos:station:wmo:lopl1:1,2013-08-01T16:06:00Z,28.8850,-90.0250,10.0,4.2,315.0,5.8,'11111222,11111222,11111222' 
LOOP,urn:ioos:station:wmo:lopl1:1,2013-08-01T16:21:00Z,28.8850,-90.0250,10.0,5.1,315.0,5.1,'11111222,11111222,11111222' 
LOOP,urn:ioos:station:wmo:lopl1:1,2013-08-01T16:36:00Z,28.8850,-90.0250,10.0,3.8,336.0,5.3,'11111222,11111222,11111222' 
LOOP,urn:ioos:station:wmo:lopl1:1,2013-08-01T16:51:00Z,28.8850,-90.0250,10.0,3.4,337.0,5.6,'11111222,11111222,11111222' 
LOOP,urn:ioos:station:wmo:lopl1:1,2013-08-01T17:06:00Z,28.8850,-90.0250,10.0,3.3,315.0,5.5,'11111222,11111222,11111222' 
LOOP,urn:ioos:station:wmo:lopl1:1,2013-08-01T17:21:00Z,28.8850,-90.0250,10.0,3.5,305.0,4.7,'11111222,11111222,11111222' 
LOOP,urn:ioos:station:wmo:lopl1:1,2013-08-01T17:36:00Z,28.8850,-90.0250,10.0,3.6,328.0,6.3,'11111222,11111222,11111222' 
LOOP,urn:ioos:station:wmo:lopl1:1,2013-08-01T17:51:00Z,28.8850,-90.0250,10.0,3.5,308.0,5.6,'11111222,11111222,11111222' 
LOOP,urn:ioos:station:wmo:lopl1:1,2013-08-01T18:06:00Z,28.8850,-90.0250,10.0,3.3,325.0,5.1,'11111222,11111222,11111222' 
LOOP,urn:ioos:station:wmo:lopl1:1,2013-08-01T18:26:00Z,28.8850,-90.0250,10.0,3.3,327.0,5.1,'11111222,11111222,11111222' 
LOOP,urn:ioos:station:wmo:lopl1:1,2013-08-01T18:41:00Z,28.8850,-90.0250,10.0,2.9,312.0,4.3,'11111222,11111222,11111222' 
LOOP,urn:ioos:station:wmo:lopl1:1,2013-08-01T18:56:00Z,28.8850,-90.0250,10.0,3.2,317.0,4.7,'11111222,11111222,11111222' 
LOOP,urn:ioos:station:wmo:lopl1:1,2013-08-01T19:11:00Z,28.8850,-90.0250,10.0,2.5,299.0,3.4,'11111222,11111222,11111222' 
LOOP,urn:ioos:station:wmo:lopl1:1,2013-08-01T19:26:00Z,28.8850,-90.0250,10.0,2.7,308.0,4.0,'11111222,11111222,11111222' 
LOOP,urn:ioos:station:wmo:lopl1:1,2013-08-01T19:41:00Z,28.8850,-90.0250,10.0,2.3,304.0,3.3,'11111222,11111222,11111222' 
LOOP,urn:ioos:station:wmo:lopl1:1,2013-08-01T19:56:00Z,28.8850,-90.0250,10.0,2.0,299.0,3.6,'11111222,11111222,11111222' 
LOOP,urn:ioos:station:wmo:lopl1:1,2013-08-01T20:11:00Z,28.8850,-90.0250,10.0,1.8,284.0,2.8,'11111222,11111222,11111222' 
LOOP,urn:ioos:station:wmo:lopl1:1,2013-08-01T20:26:00Z,28.8850,-90.0250,10.0,1.6,290.0,3.3,'11111222,11111222,11111222' 
LOOP,urn:ioos:station:wmo:lopl1:1,2013-08-01T20:41:00Z,28.8850,-90.0250,10.0,2.2,301.0,3.2,'11111222,11111222,11111222' 
LOOP,urn:ioos:station:wmo:lopl1:1,2013-08-01T20:56:00Z,28.8850,-90.0250,10.0,2.7,281.0,3.9,'11111222,11111222,11111222' 
LOOP,urn:ioos:station:wmo:lopl1:1,2013-08-01T21:11:00Z,28.8850,-90.0250,10.0,3.0,285.0,4.2,'11111222,11111222,11111222' 
LOOP,urn:ioos:station:wmo:lopl1:1,2013-08-01T21:26:00Z,28.8850,-90.0250,10.0,2.5,284.0,3.5,'11111222,11111222,11111222' 
LOOP,urn:ioos:station:wmo:lopl1:1,2013-08-01T21:41:00Z,28.8850,-90.0250,10.0,2.1,306.0,3.1,'11111222,11111222,11111222' 
LOOP,urn:ioos:station:wmo:lopl1:1,2013-08-01T21:56:00Z,28.8850,-90.0250,10.0,2.6,290.0,3.5,'11111222,11111222,11111222' 
LOOP,urn:ioos:station:wmo:lopl1:1,2013-08-01T22:11:00Z,28.8850,-90.0250,10.0,2.3,275.0,3.3,'11111222,11111222,11111222' 
LOOP,urn:ioos:station:wmo:lopl1:1,2013-08-01T22:26:00Z,28.8850,-90.0250,10.0,2.6,332.0,4.3,'11111222,11111222,11111222' 
LOOP,urn:ioos:station:wmo:lopl1:1,2013-08-01T22:41:00Z,28.8850,-90.0250,10.0,2.6,340.0,4.4,'11111222,11111222,11111222' 
LOOP,urn:ioos:station:wmo:lopl1:1,2013-08-01T22:56:00Z,28.8850,-90.0250,10.0,2.3,358.0,3.4,'11111222,11111222,11111222' 
LOOP,urn:ioos:station:wmo:lopl1:1,2013-08-01T23:11:00Z,28.8850,-90.0250,10.0,1.4,297.0,2.2,'11111222,11111222,11111222' 
LOOP,urn:ioos:station:wmo:lopl1:1,2013-08-01T23:26:00Z,28.8850,-90.0250,10.0,1.2,306.0,1.8,'11111222,11111222,11111222' 
LOOP,urn:ioos:station:wmo:lopl1:1,2013-08-01T23:41:00Z,28.8850,-90.0250,10.0,0.7,288.0,1.3,'11111222,11111222,11111222' 
LOOP,urn:ioos:station:wmo:lopl1:1,2013-08-01T23:56:00Z,28.8850,-90.0250,10.0,0.4,297.0,1.1,'11111222,11111222,11111222' 
LOOP,urn:ioos:station:wmo:lopl1:1,2013-08-02T00:11:00Z,28.8850,-90.0250,10.0,1.4,309.0,2.1,'11111222,11111222,11111222' 
LOOP,urn:ioos:station:wmo:lopl1:1,2013-08-02T00:26:00Z,28.8850,-90.0250,10.0,1.4,288.0,2.3,'11111222,11111222,11111222' 
LOOP,urn:ioos:station:wmo:lopl1:1,2013-08-02T00:41:00Z,28.8850,-90.0250,10.0,2.9,286.0,4.1,'11111222,11111222,11111222' 
LOOP,urn:ioos:station:wmo:lopl1:1,2013-08-02T00:56:00Z,28.8850,-90.0250,10.0,2.6,-9999.0,3.9,'11111222,99999999,11111222' 
LOOP,urn:ioos:station:wmo:lopl1:1,2013-08-02T01:11:00Z,28.8850,-90.0250,10.0,3.3,287.0,4.4,'11111222,11111222,11111222' 
LOOP,urn:ioos:station:wmo:lopl1:1,2013-08-02T01:26:00Z,28.8850,-90.0250,10.0,3.7,293.0,4.9,'11111222,11111222,11111222' 
LOOP,urn:ioos:station:wmo:lopl1:1,2013-08-02T01:41:00Z,28.8850,-90.0250,10.0,4.0,296.0,5.3,'11111222,11111222,11111222' 
LOOP,urn:ioos:station:wmo:lopl1:1,2013-08-02T01:56:00Z,28.8850,-90.0250,10.0,2.6,280.0,3.5,'11111222,11111222,11111222' 
LOOP,urn:ioos:station:wmo:lopl1:1,2013-08-02T02:11:00Z,28.8850,-90.0250,10.0,1.7,-9999.0,3.4,'11111222,99999999,11111222' 
LOOP,urn:ioos:station:wmo:lopl1:1,2013-08-02T02:26:00Z,28.8850,-90.0250,10.0,2.4,-9999.0,3.8,'11111222,99999999,11111222' 
LOOP,urn:ioos:station:wmo:lopl1:1,2013-08-02T02:41:00Z,28.8850,-90.0250,10.0,2.4,-9999.0,3.9,'11111222,99999999,11111222' 
LOOP,urn:ioos:station:wmo:lopl1:1,2013-08-02T02:56:00Z,28.8850,-90.0250,10.0,3.5,-9999.0,4.5,'11111222,99999999,11111222' 
LOOP,urn:ioos:station:wmo:lopl1:1,2013-08-02T03:16:00Z,28.8850,-90.0250,10.0,3.0,-9999.0,4.5,'11111222,99999999,11111222' 
LOOP,urn:ioos:station:wmo:lopl1:1,2013-08-02T03:31:00Z,28.8850,-90.0250,10.0,3.5,-9999.0,4.3,'11111222,99999999,11111222' 
LOOP,urn:ioos:station:wmo:lopl1:1,2013-08-02T03:46:00Z,28.8850,-90.0250,10.0,3.5,-9999.0,4.5,'11111222,99999999,11111222' 
LOOP,urn:ioos:station:wmo:lopl1:1,2013-08-02T04:01:00Z,28.8850,-90.0250,10.0,3.7,-9999.0,4.7,'11111222,99999999,11111222' 
LOOP,urn:ioos:station:wmo:lopl1:1,2013-08-02T04:16:00Z,28.8850,-90.0250,10.0,3.6,-9999.0,4.3,'11111222,99999999,11111222' 
LOOP,urn:ioos:station:wmo:lopl1:1,2013-08-02T04:31:00Z,28.8850,-90.0250,10.0,4.9,-9999.0,5.5,'11111222,99999999,11111222' 
LOOP,urn:ioos:station:wmo:lopl1:1,2013-08-02T04:46:00Z,28.8850,-90.0250,10.0,4.4,-9999.0,5.9,'11111222,99999999,11111222' 
LOOP,urn:ioos:station:wmo:lopl1:1,2013-08-02T05:01:00Z,28.8850,-90.0250,10.0,4.2,-9999.0,5.9,'11111222,99999999,11111222' 
LOOP,urn:ioos:station:wmo:lopl1:1,2013-08-02T05:16:00Z,28.8850,-90.0250,10.0,4.4,-9999.0,5.6,'11111222,99999999,11111222' 
LOOP,urn:ioos:station:wmo:lopl1:1,2013-08-02T05:31:00Z,28.8850,-90.0250,10.0,3.8,-9999.0,6.3,'11111222,99999999,11111222' 
LOOP,urn:ioos:station:wmo:lopl1:1,2013-08-02T05:46:00Z,28.8850,-90.0250,10.0,4.8,-9999.0,6.8,'11111222,99999999,11111222' 
LOOP,urn:ioos:station:wmo:lopl1:1,2013-08-02T06:01:00Z,28.8850,-90.0250,10.0,4.5,-9999.0,6.4,'11111222,99999999,11111222' 
LOOP,urn:ioos:station:wmo:lopl1:1,2013-08-02T06:16:00Z,28.8850,-90.0250,10.0,3.5,-9999.0,5.6,'11111222,99999999,11111222' 
LOOP,urn:ioos:station:wmo:lopl1:1,2013-08-02T06:31:00Z,28.8850,-90.0250,10.0,3.7,-9999.0,5.9,'11111222,99999999,11111222' 
LOOP,urn:ioos:station:wmo:lopl1:1,2013-08-02T06:46:00Z,28.8850,-90.0250,10.0,2.8,265.0,4.7,'11111222,11111222,11111222' 
LOOP,urn:ioos:station:wmo:lopl1:1,2013-08-02T07:01:00Z,28.8850,-90.0250,10.0,3.2,267.0,5.5,'11111222,11111222,11111222' 
LOOP,urn:ioos:station:wmo:lopl1:1,2013-08-02T07:16:00Z,28.8850,-90.0250,10.0,4.2,-9999.0,5.4,'11111222,99999999,11111222' 
LOOP,urn:ioos:station:wmo:lopl1:1,2013-08-02T07:31:00Z,28.8850,-90.0250,10.0,4.9,-9999.0,6.9,'11111222,99999999,11111222' 
LOOP,urn:ioos:station:wmo:lopl1:1,2013-08-02T07:46:00Z,28.8850,-90.0250,10.0,5.4,-9999.0,6.9,'11111222,99999999,11111222' 
LOOP,urn:ioos:station:wmo:lopl1:1,2013-08-02T08:01:00Z,28.8850,-90.0250,10.0,5.8,286.0,9.4,'11111222,11111222,11111222' 
LOOP,urn:ioos:station:wmo:lopl1:1,2013-08-02T08:16:00Z,28.8850,-90.0250,10.0,3.4,335.0,6.8,'11111222,11111222,11111222' 
LOOP,urn:ioos:station:wmo:lopl1:1,2013-08-02T08:31:00Z,28.8850,-90.0250,10.0,4.3,325.0,10.3,'11111222,11111222,11111222' 
LOOP,urn:ioos:station:wmo:lopl1:1,2013-08-02T08:46:00Z,28.8850,-90.0250,10.0,3.2,305.0,4.6,'11111222,11111222,11111222' 
LOOP,urn:ioos:station:wmo:lopl1:1,2013-08-02T09:01:00Z,28.8850,-90.0250,10.0,6.1,289.0,8.2,'11111222,11111222,11111222' 
LOOP,urn:ioos:station:wmo:lopl1:1,2013-08-02T09:16:00Z,28.8850,-90.0250,10.0,3.5,291.0,4.8,'11111222,11111222,11111222' 
LOOP,urn:ioos:station:wmo:lopl1:1,2013-08-02T09:31:00Z,28.8850,-90.0250,10.0,2.4,283.0,3.9,'11111222,11111222,11111222' 
LOOP,urn:ioos:station:wmo:lopl1:1,2013-08-02T09:46:00Z,28.8850,-90.0250,10.0,3.7,290.0,4.3,'11111222,11111222,11111222' 
LOOP,urn:ioos:station:wmo:lopl1:1,2013-08-02T10:01:00Z,28.8850,-90.0250,10.0,2.4,290.0,3.3,'11111222,11111222,11111222' 
LOOP,urn:ioos:station:wmo:lopl1:1,2013-08-02T10:16:00Z,28.8850,-90.0250,10.0,2.6,308.0,3.7,'11111222,11111222,11111222' 
LOOP,urn:ioos:station:wmo:lopl1:1,2013-08-02T10:31:00Z,28.8850,-90.0250,10.0,1.9,323.0,3.5,'11111222,11111222,11111222' 
LOOP,urn:ioos:station:wmo:lopl1:1,2013-08-02T10:46:00Z,28.8850,-90.0250,10.0,3.2,315.0,5.0,'11111222,11111222,11111222' 
LOOP,urn:ioos:station:wmo:lopl1:1,2013-08-02T11:01:00Z,28.8850,-90.0250,10.0,3.4,318.0,5.0,'11111222,11111222,11111222' 
LOOP,urn:ioos:station:wmo:lopl1:1,2013-08-02T11:16:00Z,28.8850,-90.0250,10.0,2.6,306.0,3.8,'11111222,11111222,11111222' 
LOOP,urn:ioos:station:wmo:lopl1:1,2013-08-02T11:31:00Z,28.8850,-90.0250,10.0,3.4,332.0,4.5,'11111222,11111222,11111222' 
LOOP,urn:ioos:station:wmo:lopl1:1,2013-08-02T11:46:00Z,28.8850,-90.0250,10.0,4.0,334.0,5.8,'11111222,11111222,11111222' 
LOOP,urn:ioos:station:wmo:lopl1:1,2013-08-02T12:01:00Z,28.8850,-90.0250,10.0,3.3,334.0,5.4,'11111222,11111222,11111222' 
LOOP,urn:ioos:station:wmo:lopl1:1,2013-08-02T12:16:00Z,28.8850,-90.0250,10.0,5.0,332.0,7.4,'11111222,11111222,11111222' 
LOOP,urn:ioos:station:wmo:lopl1:1,2013-08-02T12:31:00Z,28.8850,-90.0250,10.0,4.0,329.0,5.7,'11111222,11111222,11111222' 
LOOP,urn:ioos:station:wmo:lopl1:1,2013-08-02T12:46:00Z,28.8850,-90.0250,10.0,3.0,310.0,4.4,'11111222,11111222,11111222' 
LOOP,urn:ioos:station:wmo:lopl1:1,2013-08-02T13:01:00Z,28.8850,-90.0250,10.0,2.7,296.0,4.1,'11111222,11111222,11111222' 
LOOP,urn:ioos:station:wmo:lopl1:1,2013-08-02T13:21:00Z,28.8850,-90.0250,10.0,2.7,316.0,4.1,'11111222,11111222,11111222' 
LOOP,urn:ioos:station:wmo:lopl1:1,2013-08-02T13:36:00Z,28.8850,-90.0250,10.0,3.0,305.0,4.2,'11111222,11111222,11111222' 
LOOP,urn:ioos:station:wmo:lopl1:1,2013-08-02T13:51:00Z,28.8850,-90.0250,10.0,3.0,317.0,4.4,'11111222,11111222,11111222' 
LOOP,urn:ioos:station:wmo:lopl1:1,2013-08-02T14:06:00Z,28.8850,-90.0250,10.0,3.0,302.0,4.4,'11111222,11111222,11111222' 
LOOP,urn:ioos:station:wmo:lopl1:1,2013-08-02T14:21:00Z,28.8850,-90.0250,10.0,2.8,312.0,4.1,'11111222,11111222,11111222' 
LOOP,urn:ioos:station:wmo:lopl1:1,2013-08-02T14:36:00Z,28.8850,-90.0250,10.0,2.6,310.0,3.9,'11111222,11111222,11111222' 
LOOP,urn:ioos:station:wmo:lopl1:1,2013-08-02T14:51:00Z,28.8850,-90.0250,10.0,2.8,322.0,4.2,'11111222,11111222,11111222' 
LOOP,urn:ioos:station:wmo:lopl1:1,2013-08-02T15:06:00Z,28.8850,-90.0250,10.0,3.6,333.0,5.7,'11111222,11111222,11111222' 
LOOP,urn:ioos:station:wmo:lopl1:1,2013-08-02T15:21:00Z,28.8850,-90.0250,10.0,3.3,331.0,5.5,'11111222,11111222,11111222' 
LOOP,urn:ioos:station:wmo:lopl1:1,2013-08-02T15:36:00Z,28.8850,-90.0250,10.0,3.7,340.0,5.8,'11111222,11111222,11111222' 
LOOP,urn:ioos:station:wmo:lopl1:1,2013-08-02T15:51:00Z,28.8850,-90.0250,10.0,3.3,336.0,4.9,'11111222,11111222,11111222' 
LOOP,urn:ioos:station:wmo:lopl1:1,2013-08-02T16:06:00Z,28.8850,-90.0250,10.0,3.8,332.0,5.7,'11111222,11111222,11111222' 
LOOP,urn:ioos:station:wmo:lopl1:1,2013-08-02T16:21:00Z,28.8850,-90.0250,10.0,3.6,334.0,6.0,'11111222,11111222,11111222' 
LOOP,urn:ioos:station:wmo:lopl1:1,2013-08-02T16:36:00Z,28.8850,-90.0250,10.0,3.1,343.0,4.9,'11111222,11111222,11111222' 
LOOP,urn:ioos:station:wmo:lopl1:1,2013-08-02T16:51:00Z,28.8850,-90.0250,10.0,2.5,340.0,4.4,'11111222,11111222,11111222' 
LOOP,urn:ioos:station:wmo:lopl1:1,2013-08-02T17:06:00Z,28.8850,-90.0250,10.0,2.2,323.0,3.9,'11111222,11111222,11111222' 
LOOP,urn:ioos:station:wmo:lopl1:1,2013-08-02T17:21:00Z,28.8850,-90.0250,10.0,1.8,339.0,3.1,'11111222,11111222,11111222' 
LOOP,urn:ioos:station:wmo:lopl1:1,2013-08-02T17:36:00Z,28.8850,-90.0250,10.0,1.4,309.0,2.5,'11111222,11111222,11111222' 
LOOP,urn:ioos:station:wmo:lopl1:1,2013-08-02T17:51:00Z,28.8850,-90.0250,10.0,1.7,307.0,2.7,'11111222,11111222,11111222' 
LOOP,urn:ioos:station:wmo:lopl1:1,2013-08-02T18:06:00Z,28.8850,-90.0250,10.0,1.7,296.0,2.9,'11111222,11111222,11111222' 
LOOP,urn:ioos:station:wmo:lopl1:1,2013-08-02T18:21:00Z,28.8850,-90.0250,10.0,1.7,333.0,3.1,'11111222,11111222,11111222' 
LOOP,urn:ioos:station:wmo:lopl1:1,2013-08-02T18:36:00Z,28.8850,-90.0250,10.0,1.7,270.0,2.9,'11111222,11111222,11111222' 
LOOP,urn:ioos:station:wmo:lopl1:1,2013-08-02T18:51:00Z,28.8850,-90.0250,10.0,1.2,272.0,2.1,'11111222,11111222,11111222' 
LOOP,urn:ioos:station:wmo:lopl1:1,2013-08-02T19:06:00Z,28.8850,-90.0250,10.0,1.2,304.0,2.2,'11111222,11111222,11111222' 
LOOP,urn:ioos:station:wmo:lopl1:1,2013-08-02T19:21:00Z,28.8850,-90.0250,10.0,0.5,346.0,1.4,'11111222,11111222,11111222' 
LOOP,urn:ioos:station:wmo:lopl1:1,2013-08-02T19:36:00Z,28.8850,-90.0250,10.0,1.7,335.0,2.9,'11111222,11111222,11111222' 
LOOP,urn:ioos:station:wmo:lopl1:1,2013-08-02T19:56:00Z,28.8850,-90.0250,10.0,1.4,342.0,2.4,'11111222,11111222,11111222' 
LOOP,urn:ioos:station:wmo:lopl1:1,2013-08-02T20:11:00Z,28.8850,-90.0250,10.0,0.9,1.0,1.7,'11111222,11111222,11111222' 
LOOP,urn:ioos:station:wmo:lopl1:1,2013-08-02T20:26:00Z,28.8850,-90.0250,10.0,0.8,337.0,1.6,'11111222,11111222,11111222' 
LOOP,urn:ioos:station:wmo:lopl1:1,2013-08-02T20:41:00Z,28.8850,-90.0250,10.0,0.7,287.0,1.4,'11111222,11111222,11111222' 
LOOP,urn:ioos:station:wmo:lopl1:1,2013-08-02T20:56:00Z,28.8850,-90.0250,10.0,0.7,-9999.0,1.6,'11111222,99999999,11111222' 
LOOP,urn:ioos:station:wmo:lopl1:1,2013-08-02T21:11:00Z,28.8850,-90.0250,10.0,1.1,-9999.0,1.9,'11111222,99999999,11111222' 
LOOP,urn:ioos:station:wmo:lopl1:1,2013-08-02T21:26:00Z,28.8850,-90.0250,10.0,1.2,-9999.0,1.8,'11111222,99999999,11111222' 
LOOP,urn:ioos:station:wmo:lopl1:1,2013-08-02T21:41:00Z,28.8850,-90.0250,10.0,0.9,-9999.0,1.7,'11111222,99999999,11111222' 
LOOP,urn:ioos:station:wmo:lopl1:1,2013-08-02T21:56:00Z,28.8850,-90.0250,10.0,1.2,262.0,2.2,'11111222,11111222,11111222' 
LOOP,urn:ioos:station:wmo:lopl1:1,2013-08-02T22:11:00Z,28.8850,-90.0250,10.0,0.9,-9999.0,2.0,'11111222,99999999,11111222' 
LOOP,urn:ioos:station:wmo:lopl1:1,2013-08-02T22:26:00Z,28.8850,-90.0250,10.0,2.0,-9999.0,3.0,'11111222,99999999,11111222' 
LOOP,urn:ioos:station:wmo:lopl1:1,2013-08-02T22:41:00Z,28.8850,-90.0250,10.0,2.0,-9999.0,2.8,'11111222,99999999,11111222' 
LOOP,urn:ioos:station:wmo:lopl1:1,2013-08-02T22:56:00Z,28.8850,-90.0250,10.0,2.4,-9999.0,3.5,'11111222,99999999,11111222' 
LOOP,urn:ioos:station:wmo:lopl1:1,2013-08-02T23:11:00Z,28.8850,-90.0250,10.0,2.9,-9999.0,3.7,'11111222,99999999,11111222' 
LOOP,urn:ioos:station:wmo:lopl1:1,2013-08-02T23:26:00Z,28.8850,-90.0250,10.0,2.1,-9999.0,3.1,'11111222,99999999,11111222' 
LOOP,urn:ioos:station:wmo:lopl1:1,2013-08-02T23:41:00Z,28.8850,-90.0250,10.0,2.1,-9999.0,3.0,'11111222,99999999,11111222' 
LOOP,urn:ioos:station:wmo:lopl1:1,2013-08-02T23:56:00Z,28.8850,-90.0250,10.0,0.9,276.0,1.8,'11111222,11111222,11111222' 
LOOP,urn:ioos:station:wmo:lopl1:1,2013-08-03T00:11:00Z,28.8850,-90.0250,10.0,0.8,-9999.0,1.9,'11111222,99999999,11111222' 
LOOP,urn:ioos:station:wmo:lopl1:1,2013-08-03T00:26:00Z,28.8850,-90.0250,10.0,1.2,-9999.0,2.3,'11111222,99999999,11111222' 
LOOP,urn:ioos:station:wmo:lopl1:1,2013-08-03T00:41:00Z,28.8850,-90.0250,10.0,1.6,-9999.0,2.7,'11111222,99999999,11111222' 
LOOP,urn:ioos:station:wmo:lopl1:1,2013-08-03T00:56:00Z,28.8850,-90.0250,10.0,1.7,-9999.0,2.9,'11111222,99999999,11111222' 
LOOP,urn:ioos:station:wmo:lopl1:1,2013-08-03T01:11:00Z,28.8850,-90.0250,10.0,1.5,-9999.0,2.7,'11111222,99999999,11111222' 
LOOP,urn:ioos:station:wmo:lopl1:1,2013-08-03T01:26:00Z,28.8850,-90.0250,10.0,2.7,-9999.0,3.4,'11111222,99999999,11111222' 